Weather History for KGUP - June, 2013

Change the Weather History Date:

Tuesday, June 18, 2013

  Actual Average Record
Temperature  
Mean Temperature 66 °F -  
Max Temperature 89 °F 83 °F 96 °F (1989)
Min Temperature 45 °F 42 °F 27 °F (1998)
Cooling Degree Days 2    
Growing Degree Days 16 (Base 50)    
Moisture  
Dew Point 15 °F    
Average Humidity 14    
Maximum Humidity 33    
Minimum Humidity 6    
Precipitation  
Precipitation 0.00 in - - ()
Sea Level Pressure  
Sea Level Pressure 29.64 in    
Wind  
Wind Speed 8 mph (SSW)    
Max Wind Speed 23 mph    
Max Gust Speed 30 mph    
Visibility 10 miles    
Events      
Averages and records for this station are not official NWS values.
T = Trace of Precipitation, MM = Missing Value Source: NWS Daily Summary

Daily Weather History Graph

Daily Weather History Graph

Search for Another Location

Airport or City:

Trip Planner

Search our weather history database for the weather conditions in past years. The results will help you decide how hot, cold, wet, or windy it might be!

Date:

Astronomy

Jun. 18, 2013 Rise Set
Actual Time 5:59 AM MDT 8:33 PM MDT
Civil Twilight 5:29 AM MDT 9:03 PM MDT
Nautical Twilight 4:52 AM MDT 9:40 PM MDT
Astronomical Twilight 4:11 AM MDT 10:21 PM MDT
Moon 3:28 PM MDT (6/18) 2:00 AM MDT (6/18)
Length of Visible Light 15h 33m
Length of Day
14h 33m
Waxing Gibbous, 71% of the Moon is Illuminated
Jun 18
Waxing Gibbous
Jun 23
Full
Jun 29
Last Quarter
Jul 8
New
Jul 15
First Quarter

Hourly Weather History & Observations

Time (MDT) Temp. Windchill Dew Point Humidity Pressure Visibility Wind Dir Wind Speed Gust Speed Precip Events Conditions
12:53 AM 51.1 °F - 15.1 °F 24% 29.72 in 10.0 mi East 3.5 mph - N/A   Clear
1:53 AM 55.0 °F - 19.9 °F 25% 29.67 in 10.0 mi NE 3.5 mph - N/A   Clear
2:53 AM 55.9 °F - 19.0 °F 24% 29.67 in 10.0 mi Calm Calm - N/A   Clear
3:53 AM 57.9 °F - 19.0 °F 22% 29.64 in 10.0 mi SSE 4.6 mph - N/A   Clear
4:53 AM 55.0 °F - 19.0 °F 24% 29.68 in 10.0 mi Calm Calm - N/A   Clear
5:53 AM 45.0 °F 42.6 °F 17.1 °F 33% 29.76 in 10.0 mi ENE 4.6 mph - N/A   Clear
6:53 AM 48.0 °F - 17.1 °F 29% 29.75 in 10.0 mi NE 4.6 mph - N/A   Clear
7:53 AM 63.0 °F - 21.9 °F 21% 29.68 in 10.0 mi Calm Calm - N/A   Clear
8:53 AM 73.0 °F - 21.9 °F 15% 29.67 in 10.0 mi South 11.5 mph - N/A   Clear
9:53 AM 77.0 °F - 21.9 °F 13% 29.72 in 10.0 mi South 17.3 mph - N/A   Clear
10:53 AM 78.1 °F - 15.1 °F 9% 29.71 in 10.0 mi WSW 9.2 mph 24.2 mph N/A   Clear
11:53 AM 82.0 °F - 14.0 °F 8% 29.70 in 10.0 mi South 10.4 mph 23.0 mph N/A   Clear
12:53 PM 84.9 °F - 16.0 °F 8% 29.71 in 10.0 mi SSW 19.6 mph 23.0 mph N/A   Clear
1:53 PM 86.0 °F - 10.9 °F 6% 29.65 in 10.0 mi WSW 18.4 mph 27.6 mph N/A   Clear
2:53 PM 88.0 °F - 10.9 °F 6% 29.61 in 10.0 mi West 21.9 mph 29.9 mph N/A   Clear
3:53 PM 88.0 °F - 10.9 °F 6% 29.57 in 10.0 mi WSW 15.0 mph 27.6 mph N/A   Clear
4:53 PM 88.0 °F - 10.9 °F 6% 29.57 in 10.0 mi WSW 15.0 mph 23.0 mph N/A   Clear
5:53 PM 87.1 °F - 10.9 °F 6% 29.63 in 10.0 mi SW 12.7 mph 26.5 mph N/A   Clear
6:53 PM 87.1 °F - 10.0 °F 6% 29.59 in 10.0 mi WSW 23.0 mph 26.5 mph N/A   Clear
7:53 PM 82.9 °F - 10.9 °F 7% 29.52 in 10.0 mi SW 16.1 mph 24.2 mph N/A   Clear
8:53 PM 78.1 °F - 12.0 °F 8% 29.48 in 10.0 mi WSW 11.5 mph - N/A   Clear
9:53 PM 70.0 °F - 12.0 °F 11% 29.52 in 10.0 mi SSW 6.9 mph - N/A   Clear
10:53 PM 66.0 °F - 12.9 °F 13% 29.57 in 10.0 mi SW 4.6 mph - N/A   Clear
11:53 PM 63.0 °F - 12.0 °F 14% 29.56 in 10.0 mi South 6.9 mph - N/A   Clear